FW4751 Weather Reports


time (UTC)temp
C
wind
direction
speed
KPH
gust
KPH
rain 1hr
cm
rain 24hr
cm
rain mn
cm
humidity
%
barometer
mb
20260503193003 17 225 1.6 6.4 0.00 0.00 0.00 60 1013.5
20260503192504 18 225 3.2 12.9 0.00 0.00 0.00 59 1013.6
20260503192003 18 225 3.2 14.5 0.00 0.00 0.00 58 1013.6
20260503191503 18 293 3.2 6.4 0.00 0.00 0.00 58 1013.5
20260503191003 18 225 3.2 8.0 0.00 0.00 0.00 57 1013.5
20260503190504 18 0 1.6 4.8 0.00 0.00 0.00 56 1013.6
20260503190003 18 113 1.6 8.0 0.00 0.00 0.00 57 1013.6
20260503185503 17 293 1.6 6.4 0.00 0.00 0.00 59 1013.5
20260503185004 17 248 3.2 8.0 0.00 0.00 0.00 61 1013.6
20260503184503 17 315 3.2 8.0 0.00 0.00 0.00 61 1013.6
20260503184003 17 248 3.2 8.0 0.00 0.00 0.00 62 1013.6
20260503183503 17 225 3.2 11.3 0.00 0.00 0.00 60 1013.7
20260503183003 17 225 3.2 6.4 0.00 0.00 0.00 60 1013.7
20260503182503 17 315 3.2 6.4 0.00 0.00 0.00 61 1013.7
20260503182003 17 225 3.2 9.7 0.00 0.00 0.00 61 1013.7
20260503181504 17 225 3.2 14.5 0.00 0.00 0.00 60 1013.7
20260503181004 17 225 3.2 11.3 0.00 0.00 0.00 60 1013.7
20260503180503 17 225 3.2 9.7 0.00 0.00 0.00 63 1013.6
20260503180003 17 270 3.2 8.0 0.00 0.00 0.00 63 1013.6
20260503175503 17 225 4.8 11.3 0.00 0.00 0.00 63 1013.7
20260503175005 16 225 4.8 11.3 0.00 0.00 0.00 64 1013.6
20260503174505 16 225 3.2 9.7 0.00 0.00 0.00 66 1013.6
20260503174005 16 225 4.8 11.3 0.00 0.00 0.00 66 1013.7
20260503173505 16 225 3.2 11.3 0.00 0.00 0.00 67 1013.7
20260503173005 15 225 4.8 9.7 0.00 0.00 0.00 70 1013.7
20260503172505 15 225 3.2 6.4 0.00 0.00 0.00 70 1013.7
20260503172005 15 225 3.2 9.7 0.00 0.00 0.00 70 1013.7
20260503171525 15 225 3.2 11.3 0.00 0.00 0.00 72 1013.7
20260503171024 15 315 3.2 8.0 0.00 0.00 0.00 73 1013.7
20260503170505 15 315 3.2 9.7 0.00 0.00 0.00 74 1013.7
20260503151004 13 225 1.6 4.8 0.00 0.00 0.00 79 1013.4
20260503150505 13 225 1.6 8.0 0.00 0.00 0.00 79 1013.2
20260503131004 12 293 1.6 3.2 0.00 0.00 0.00 81 1011.9
20260503130504 12 225 1.6 3.2 0.00 0.00 0.00 80 1011.9
20260503110504 12 0.0 1.6 0.00 0.00 0.00 79 1011.8
20260503081504 13 270 1.6 4.8 0.00 0.00 0.00 77 1012.5
20260503081023 13 248 1.6 3.2 0.00 0.00 0.00 77 1012.6
20260503080523 13 270 1.6 4.8 0.00 0.00 0.00 77 1012.6
20260503072504 13 270 1.6 4.8 0.00 0.00 0.00 76 1012.9
20260503072004 13 338 3.2 6.4 0.00 0.00 0.00 76 1012.8
20260503071503 13 315 1.6 3.2 0.00 0.00 0.00 76 1012.8
20260503071003 13 338 1.6 6.4 0.00 0.00 0.00 76 1012.6
20260503070503 13 338 1.6 4.8 0.00 0.00 0.00 76 1012.7
20260503055004 13 338 3.2 8.0 0.00 0.00 0.00 76 1013.1
20260503054503 13 338 1.6 4.8 0.00 0.00 0.00 77 1013.0
20260503054003 13 315 1.6 6.4 0.00 0.00 0.00 77 1013.2
20260503053503 13 338 1.6 4.8 0.00 0.00 0.00 77 1013.0
20260503053023 13 293 1.6 6.4 0.00 0.00 0.00 77 1013.1
20260503052503 13 315 1.6 4.8 0.00 0.00 0.00 77 1013.1
20260503052003 13 338 1.6 6.4 0.00 0.00 0.00 77 1013.1
20260503051503 13 338 3.2 9.7 0.00 0.00 0.00 77 1013.2
20260503051023 13 338 1.6 8.0 0.00 0.00 0.00 77 1013.1
20260503050503 13 338 3.2 6.4 0.00 0.00 0.00 77 1013.1
20260503050003 13 338 1.6 4.8 0.00 0.00 0.00 77 1013.2
20260503045503 13 338 3.2 8.0 0.00 0.00 0.00 76 1013.0
20260503045003 13 315 3.2 8.0 0.00 0.00 0.00 76 1013.0
20260503044503 13 315 1.6 6.4 0.00 0.00 0.00 76 1012.9
20260503044003 13 338 3.2 9.7 0.00 0.00 0.00 75 1013.0
20260503043523 13 338 3.2 12.9 0.00 0.00 0.00 75 1012.9
20260503043023 13 315 3.2 8.0 0.00 0.00 0.00 75 1012.8
20260503042503 13 338 3.2 8.0 0.00 0.00 0.00 75 1012.9
20260503042003 13 315 3.2 9.7 0.00 0.00 0.00 75 1012.8
20260503041503 13 315 1.6 9.7 0.00 0.00 0.00 75 1012.7
20260503041023 13 315 1.6 6.4 0.00 0.00 0.00 75 1012.7
20260503040502 13 338 3.2 9.7 0.00 0.00 0.00 75 1012.6
20260503040004 13 338 3.2 12.9 0.00 0.00 0.00 75 1012.6
20260503035503 13 293 3.2 8.0 0.00 0.00 0.00 75 1012.5
20260503035003 13 338 3.2 9.7 0.00 0.00 0.00 75 1012.5
20260503034503 13 338 3.2 9.7 0.00 0.00 0.00 75 1012.6
20260503034002 13 338 3.2 11.3 0.00 0.00 0.00 75 1012.5
20260503033502 13 338 3.2 11.3 0.00 0.00 0.00 75 1012.4
20260503033003 13 338 3.2 8.0 0.00 0.00 0.00 74 1012.3
20260503032505 13 338 3.2 9.7 0.00 0.00 0.00 74 1012.4
20260503032004 13 338 3.2 9.7 0.00 0.00 0.00 74 1012.3
20260503031505 14 338 3.2 8.0 0.00 0.00 0.00 74 1012.1
20260503031005 14 338 3.2 12.9 0.00 0.00 0.00 73 1012.2
20260503030505 14 0 4.8 9.7 0.00 0.00 0.00 73 1012.0
20260503030004 14 315 1.6 6.4 0.00 0.00 0.00 72 1011.8
20260503025505 14 338 3.2 9.7 0.00 0.00 0.00 72 1011.7
20260503025004 14 45 4.8 11.3 0.00 0.00 0.00 71 1011.6
20260503024506 14 338 3.2 11.3 0.00 0.00 0.00 71 1011.6
20260503024005 15 338 3.2 11.3 0.00 0.00 0.00 70 1011.5
20260503023505 15 338 3.2 8.0 0.00 0.00 0.00 70 1011.3
20260503023005 15 338 3.2 11.3 0.00 0.00 0.00 70 1011.4
20260503022505 15 338 4.8 11.3 0.00 0.00 0.00 70 1011.4
20260503022006 15 338 3.2 9.7 0.00 0.00 0.00 70 1011.4
20260503021505 15 338 4.8 11.3 0.00 0.00 0.00 70 1011.3
20260503021005 15 338 3.2 9.7 0.00 0.00 0.00 70 1011.3
20260503020504 15 338 3.2 12.9 0.00 0.00 0.00 70 1011.4
20260503020005 15 338 3.2 8.0 0.00 0.00 0.00 69 1011.4
20260503015505 15 338 3.2 11.3 0.00 0.00 0.00 69 1011.4
20260503015005 15 338 3.2 6.4 0.00 0.00 0.00 69 1011.3
20260503014505 16 338 3.2 11.3 0.00 0.00 0.00 69 1011.4
20260503014024 16 338 4.8 14.5 0.00 0.00 0.00 69 1011.4
20260503013504 16 338 4.8 12.9 0.00 0.00 0.00 68 1011.4
20260503013004 16 338 3.2 6.4 0.00 0.00 0.00 69 1011.4
20260503012605 16 338 3.2 11.3 0.00 0.00 0.00 68 1011.4
20260503012004 16 338 3.2 11.3 0.00 0.00 0.00 68 1011.4
20260503011504 16 338 4.8 11.3 0.00 0.00 0.00 68 1011.3
20260503011004 17 338 4.8 11.3 0.00 0.00 0.00 67 1011.4
20260503010504 17 315 3.2 9.7 0.00 0.00 0.00 66 1011.3
20260503010005 17 338 3.2 9.7 0.00 0.00 0.00 66 1011.3
20260503005504 17 338 4.8 9.7 0.00 0.00 0.00 66 1011.3
20260503005004 17 338 3.2 9.7 0.00 0.00 0.00 66 1011.3
20260503004524 17 45 4.8 12.9 0.00 0.00 0.00 66 1011.5
20260503004004 17 338 4.8 12.9 0.00 0.00 0.00 66 1011.2
20260503003504 17 338 4.8 14.5 0.00 0.00 0.00 66 1011.3
20260503003044 17 0 4.8 12.9 0.00 0.00 0.00 66 1011.4
20260503002524 17 45 4.8 11.3 0.00 0.00 0.00 65 1011.3
20260503002004 17 23 4.8 14.5 0.00 0.00 0.00 66 1011.5
20260503001504 17 338 6.4 14.5 0.00 0.00 0.00 65 1011.3
20260503001024 18 0 4.8 14.5 0.00 0.00 0.00 66 1011.5
20260503000504 18 45 4.8 11.3 0.00 0.00 0.00 65 1011.4
20260503000004 17 338 6.4 14.5 0.00 0.00 0.00 65 1011.5
20260502235504 18 0 8.0 20.9 0.00 0.00 0.00 65 1011.5
20260502235004 18 338 6.4 14.5 0.00 0.00 0.00 64 1011.5
20260502234504 18 45 4.8 14.5 0.00 0.00 0.00 64 1011.4
20260502234005 18 338 3.2 9.7 0.00 0.00 0.00 65 1011.6
20260502233504 18 45 4.8 11.3 0.00 0.00 0.00 65 1011.5
20260502233004 18 0 4.8 11.3 0.00 0.00 0.00 66 1011.7
20260502232505 17 0 6.4 14.5 0.00 0.00 0.00 66 1011.7
20260502232005 17 45 6.4 12.9 0.00 0.00 0.00 66 1011.7
20260502231504 18 338 6.4 16.1 0.00 0.00 0.00 66 1011.8
20260502231005 18 338 4.8 14.5 0.00 0.00 0.00 66 1011.8
20260502230504 18 45 4.8 12.9 0.00 0.00 0.00 66 1012.0
20260502230004 18 338 6.4 14.5 0.00 0.00 0.00 66 1012.2
20260502225504 17 45 4.8 14.5 0.00 0.00 0.00 67 1012.2
20260502225004 17 45 8.0 14.5 0.00 0.00 0.00 66 1012.2
20260502224504 17 45 6.4 14.5 0.00 0.00 0.00 67 1012.3
20260502224004 17 45 4.8 9.7 0.00 0.00 0.00 67 1012.3
20260502223504 17 0 4.8 14.5 0.00 0.00 0.00 67 1012.4
20260502223024 17 45 4.8 11.3 0.00 0.00 0.00 67 1012.6
20260502222504 17 45 6.4 14.5 0.00 0.00 0.00 67 1012.8
20260502222004 17 45 6.4 14.5 0.00 0.00 0.00 66 1012.9
20260502221504 17 45 4.8 14.5 0.00 0.00 0.00 66 1012.9
20260502221004 17 45 6.4 12.9 0.00 0.00 0.00 66 1013.1
20260502220504 18 45 4.8 14.5 0.00 0.00 0.00 66 1013.0
20260502220004 18 45 6.4 16.1 0.00 0.00 0.00 65 1013.1
20260502215504 18 45 4.8 11.3 0.00 0.00 0.00 63 1013.1
20260502215004 19 45 6.4 12.9 0.00 0.00 0.00 62 1013.3
20260502214504 20 45 6.4 16.1 0.00 0.00 0.00 62 1013.2
20260502214024 20 45 4.8 9.7 0.00 0.00 0.00 60 1013.3
20260502213504 21 338 3.2 9.7 0.00 0.00 0.00 59 1013.3
20260502213004 21 338 3.2 6.4 0.00 0.00 0.00 58 1013.3
20260502212504 21 225 1.6 4.8 0.00 0.00 0.00 59 1013.3
20260502212004 21 315 3.2 6.4 0.00 0.00 0.00 59 1013.4
20260502211504 21 315 3.2 9.7 0.00 0.00 0.00 60 1013.4
20260502211024 20 225 3.2 6.4 0.00 0.00 0.00 61 1013.4
20260502210504 20 45 3.2 9.7 0.00 0.00 0.00 60 1013.4
20260502210004 20 338 3.2 9.7 0.00 0.00 0.00 60 1013.5
20260502205504 21 225 3.2 6.4 0.00 0.00 0.00 60 1013.6
20260502205003 20 338 3.2 9.7 0.00 0.00 0.00 61 1013.9
20260502204504 20 315 3.2 8.0 0.00 0.00 0.00 61 1013.8
20260502204004 20 338 4.8 9.7 0.00 0.00 0.00 61 1013.8
20260502203504 20 338 3.2 9.7 0.00 0.00 0.00 62 1014.0
20260502203004 20 248 3.2 9.7 0.00 0.00 0.00 63 1014.0
20260502202503 20 225 4.8 12.9 0.00 0.00 0.00 62 1014.0
20260502202004 20 225 4.8 9.7 0.00 0.00 0.00 63 1014.0
20260502201503 20 338 3.2 9.7 0.00 0.00 0.00 63 1014.1
20260502201004 20 225 6.4 12.9 0.00 0.00 0.00 63 1014.2
20260502200504 20 315 3.2 9.7 0.00 0.00 0.00 63 1014.3
20260502200004 19 315 6.4 12.9 0.00 0.00 0.00 63 1014.5
20260502195504 19 315 6.4 12.9 0.00 0.00 0.00 64 1014.6
20260502195004 19 315 4.8 14.5 0.00 0.00 0.00 63 1014.5
20260502194504 19 293 3.2 8.0 0.00 0.00 0.00 66 1014.5
20260502194024 18 225 4.8 11.3 0.00 0.00 0.00 66 1014.6
20260502193503 18 248 4.8 14.5 0.00 0.00 0.00 66 1014.5